SCP
0 0 0 0 0 -0 -0 0 0 -0 0 0 0 0 0 0 0 0 0 0 -0 0 0 0 -0 -0 -0 -0 -0 -0 -0 -0 -0 -0 -0 -0 -0 0 0 -0 0 -0 -0 -0 -0 -0 -0 -0 -0
0 0 0 0 0 -0 0 0 -0 0 0 0 0 0 0 0 0 0 0 0 0 0 0 0 -0 -0 -0 -0 -0 0 0 0 -0 -0 -0 -0 -0 -0 0 0 0 -0 -0 -0 -0 -0 -0 -0 -0
0 0 0 0 0 -0 0 0 -0 0 0 0 0 0 0 0 0 0 0 0 0 0 0 0 -0 -0 -0 -0 -0 -0 0 0 -0 -0 -0 -0 -0 -0 -0 0 0 0 -0 -0 0 -0 -0 -0 -0
0 0 0 0 0 0 0 0 0 0 0 0 0 0 0 0 -0 0 -0 -0 0 0 0 0 -0 -0 -0 -0 -0 -0 -0 -0 0 -0 -0 -0 -0 -0 -0 -0 0 0 0 0 0 0 0 0 0
0 0 0 0 0 0 0 0 0 0 0 0 0 0 0 0 0 0 -0 0 -0 0 0 0 0 -0 -0 -0 -0 -0 -0 -0 -0 -0 -0 -0 -0 -0 -0 -0 -0 0 0 0 0 0 0 0 0
0 0 0 0 0 0 -0 0 0 0 0 0 0 0 0 0 0 0 -0 0 0 0 0 0 0 0 -0 -0 -0 -0 -0 -0 -0 -0 -0 -0 -0 -0 -0 -0 -0 -0 0 0 0 0 0 0 0
0 0 0 0 0 0 0 0 0 0 0 0 0 0 0 0 0 0 0 0 0 0 0 0 0 0 0 0 0 0 0 -0 -0 -0 -0 0 0 0 -0 -0 -0 -0 -0 -0 0 0 0 0 0
0 0 0 0 0 0 0 0 0 0 0 0 0 0 0 0 0 0 0 0 0 0 0 0 0 0 0 0 0 0 0 0 0 0 -0 0 0 0 0 0 -0 -0 -0 0 0 0 0 0 0
0 0 0 0 0 0 0 0 0 0 0 0 0 0 0 0 0 0 0 0 0 0 0 0 0 0 0 0 0 0 0 0 0 0 0 0 0 0 0 0 0 -0 -0 0 0 0 0 0 0
0 0 0 0 0 0 0 0 0 0 0 0 0 0 0 0 0 0 0 0 0 0 0 0 0 0 0 0 0 0 0 0 0 0 0 0 0 0 0 0 0 0 0 0 0 0 0 0 0
0 0 0 0 0 0 0 0 0 0 0 0 0 0 0 0 0 0 0 0 0 0 0 0 0 0 0 0 0 0 0 0 0 0 0 0 0 0 0 0 0 0 0 0 0 0 0 0 0
0 0 0 0 0 0 0 0 0 0 0 0 0 0 0 0 0 0 0 0 0 0 0 0 0 0 0 0 0 0 0 0 0 0 0 0 0 0 0 0 0 0 0 0 0 0 0 0 0
0 0 0 0 0 0 0 0 0 0 0 0 0 0 0 0 0 0 0 0 0 0 0 0 0 0 0 0 0 0 0 0 0 0 0 0 0 0 0 0 0 0 0 0 0 0 0 0 0
0 0 0 0 0 0 0 0 0 0 0 0 0 0 0 0 0 0 0 0 0 0 0 0 0 0 0 0 0 0 0 0 0 0 0 0 0 0 0 0 0 0 0 0 0 0 0 0 0
0 0 0 0 0 0 0 0 0 0 0 0 0 0 0 0 0 0 0 -0 0 0 0 0 0 0 0 0 0 0 0 0 0 0 0 0 0 0 0 0 0 0 0 0 0 0 0 0 0
0 0 0 0 0 0 0 0 0 0 0 0 0 0 0 0 0 0 0 0 0 0 0 0 0 0 0 0 0 0 0 0 0 0 0 0 0 0 0 0 0 0 0 0 0 0 0 0 0
0 0 0 0 0 0 0 -0 0 0 0 0 0 0 0 0 0 0 0 0 0 0 0 0 0 0 0 0 0 0 0 0 0 0 0 0 0 0 0 0 0 0 0 0 0 0 0 0 0
0 0 0 0 0 0 0 0 0 0 0 0 0 0 0 0 0 0 0 0 0 0 0 0 0 0 0 0 0 0 0 0 0 0 0 0 0 0 0 0 0 0 0 0 0 0 0 0 0
0 0 0 0 0 0 0 0 0 0 0 0 0 0 0 0 0 0 0 0 0 0 0 0 0 0 0 0 0 0 0 0 0 0 0 0 0 0 0 0 0 0 0 0 0 0 0 0 0
0 0 0 0 0 0 0 0 0 0 0 0 0 0 0 0 0 0 0 0 0 0 0 0 0 0 0 0 0 0 0 0 0 0 0 0 0 0 0 0 0 0 0 0 0 0 0 0 0
0 0 0 0 0 0 0 0 0 0 0 0 0 0 0 0 0 0 0 0 0 0 0 0 0 0 0 0 0 0 0 0 0 0 0 0 0 0 0 0 0 0 0 0 0 0 0 0 0
0 0 0 0 0 0 0 0 0 0 0 0 0 0 0 0 0 0 0 0 0 0 0 0 0 0 0 0 0 0 0 0 0 0 0 0 0 0 0 0 0 0 0 0 0 0 0 0 0
0 0 0 0 0 0 0 0 0 0 0 0 0 0 0 0 0 0 0 0 0 0 0 0 0 0 0 0 0 0 0 0 0 0 0 0 0 0 0 0 0 0 0 0 0 0 0 0 0
0 0 0 0 0 0 0 0 0 0 0 0 0 0 0 0 0 0 0 0 0 0 0 0 0 0 0 0 0 0 0 0 0 0 0 0 0 0 0 0 0 0 0 0 0 0 0 0 0
0 0 0 0 0 0 0 0 0 0 0 0 0 0 0 0 0 0 0 0 0 0 0 0 0 0 0 0 0 0 0 0 0 0 0 0 0 0 0 0 0 0 0 0 0 0 0 0 0
0 0 0 0 0 0 0 0 0 0 0 0 0 0 0 0 0 0 0 0 0 0 0 0 0 0 0 0 0 0 0 0 0 0 0 0 0 0 0 0 0 0 0 0 0 0 0 0 0
0 0 0 0 0 0 0 0 0 0 0 0 0 0 0 0 0 0 0 0 0 0 0 0 0 0 0 0 0 0 0 0 0 0 0 0 0 0 0 0 0 0 0 0 0 0 0 0 0
0 0 0 0 0 0 0 0 0 0 0 0 0 0 0 0 0 0 0 0 0 0 0 0 0 0 0 0 0 0 0 0 0 0 0 0 0 0 0 0 0 0 0 0 0 0 0 0 0
0 0 0 0 0 0 0 0 0 0 0 0 0 0 0 0 0 0 0 0 0 0 0 0 0 0 0 0 0 0 0 0 0 0 0 0 0 0 0 0 0 0 0 0 0 0 0 0 0
0 0 0 0 0 0 0 0 0 0 0 0 0 0 0 0 0 0 0 0 0 0 0 0 0 0 0 0 0 0 0 0 0 0 0 0 0 0 0 0 0 0 0 0 0 0 0 0 0
Wind_Speed_500mb
11 11 4 4 3 6 5 13 28 6 9 22 14 28 17 27 7 6 44 39 36 43 50 44 38 35 37 38 34 34 38 36 34 33 33 28 25 22 19 17 17 15 15 20 24 29 27 23 21
10 13 4 5 5 0 9 8 28 9 22 34 27 16 10 3 14 41 47 32 34 44 53 46 38 36 40 40 36 36 41 37 36 29 27 23 20 17 16 17 20 21 25 24 25 25 25 20 18
6 7 5 7 7 8 2 5 21 12 32 20 8 23 13 8 30 59 30 41 35 51 51 45 39 38 39 40 37 39 42 37 34 25 23 18 14 11 13 20 24 28 25 25 28 26 24 24 23
13 7 8 3 11 11 3 8 18 8 26 20 20 16 19 15 40 32 40 40 37 55 52 46 41 40 40 39 38 44 43 37 31 26 18 12 10 11 14 17 29 27 25 23 25 24 23 21 21
6 5 3 7 12 7 4 32 8 7 11 8 13 8 14 20 24 44 48 39 38 52 49 45 44 43 41 40 43 45 41 35 28 19 14 12 12 14 16 16 23 27 23 22 22 22 21 20 19
11 4 2 9 12 11 7 55 8 9 21 20 20 15 9 19 28 60 44 42 34 42 48 45 46 44 42 42 43 42 37 29 19 16 16 14 18 21 15 16 14 21 21 19 20 18 16 15 14
5 4 8 9 13 10 4 8 9 7 10 20 13 9 27 31 46 60 50 36 29 36 41 45 48 44 40 40 41 39 32 24 22 18 16 19 24 22 18 12 9 8 13 15 15 14 12 11 9
10 5 6 8 6 8 9 7 12 22 8 15 16 14 15 46 58 55 44 36 35 39 38 44 48 46 42 40 39 38 33 29 25 20 13 26 25 28 24 21 15 9 18 19 16 14 12 10 8
16 2 8 10 8 4 23 15 29 12 10 18 11 21 31 51 61 53 47 40 33 37 38 45 50 46 43 41 41 38 34 31 27 25 22 13 13 19 24 26 24 17 17 10 10 11 10 8 6
12 7 11 7 1 7 7 15 19 14 13 17 33 40 54 51 62 58 57 49 46 39 34 52 51 47 45 44 43 40 37 33 29 25 23 16 9 5 20 21 25 20 13 10 7 8 9 8 8
8 10 8 10 11 11 6 14 14 12 12 20 33 56 53 55 60 59 50 46 42 33 30 46 48 46 44 44 45 43 39 34 31 27 24 21 17 12 17 19 17 18 16 14 11 8 8 9 10
8 15 17 15 4 5 7 5 14 10 1 22 12 39 47 59 62 61 58 52 42 39 37 30 30 47 42 37 42 42 39 35 33 30 28 27 24 18 17 16 16 16 19 18 17 14 9 12 14
17 32 34 30 17 4 4 2 2 24 14 15 3 42 36 54 55 56 56 56 48 48 42 39 39 38 42 42 36 38 36 34 33 33 31 30 31 27 23 21 22 18 16 19 16 16 15 15 16
21 46 43 27 25 16 8 4 2 4 4 9 27 25 24 36 43 50 53 51 56 55 57 49 46 43 45 43 44 37 35 28 29 32 30 31 34 33 30 27 24 21 18 15 15 16 17 18 18
12 25 9 14 15 5 13 7 12 34 32 21 9 15 28 23 30 34 35 48 52 54 60 65 60 53 48 45 44 38 37 32 29 30 27 29 34 34 31 27 26 22 20 18 19 19 20 22 22
11 1 7 7 16 15 16 9 9 23 32 34 32 20 22 34 36 35 35 34 40 40 52 60 64 59 57 51 48 45 43 39 35 34 34 34 30 33 28 26 28 24 21 22 23 25 24 23 23
7 8 9 8 18 9 14 7 25 49 37 27 37 29 31 22 35 47 46 45 43 46 41 48 50 62 61 58 54 50 48 46 42 37 39 38 36 36 36 33 31 29 29 28 27 25 24 26 26
11 8 8 10 5 15 12 12 10 13 9 26 21 19 23 31 23 38 43 51 42 48 46 42 47 51 63 61 59 56 52 50 46 45 43 40 41 40 41 40 38 37 35 33 33 31 29 28 27
12 4 8 8 5 3 12 9 14 33 19 21 18 17 20 31 20 17 26 43 52 50 52 49 47 46 50 66 61 62 64 58 54 51 47 45 44 42 45 45 43 39 34 32 31 29 28 29 21
7 7 5 6 5 6 7 7 14 15 16 30 37 31 25 22 27 32 24 25 51 52 48 50 50 45 45 46 72 62 58 59 54 50 49 49 48 45 45 43 45 39 36 33 33 32 27 24 17
11 10 5 5 5 3 2 10 13 17 27 42 51 40 32 27 26 18 24 27 26 40 47 47 47 50 49 46 51 68 52 52 53 55 52 50 48 46 41 37 37 41 41 41 37 32 30 29 24
6 8 5 8 6 4 4 9 10 14 19 16 34 35 34 30 19 18 26 31 35 43 48 46 46 51 51 47 40 60 67 65 65 60 54 49 47 48 48 44 44 47 44 42 40 37 35 37 36
7 9 1 4 5 3 5 2 13 15 11 15 30 27 27 26 28 30 32 36 43 42 49 52 52 51 52 51 48 44 57 67 57 54 51 50 52 54 54 51 50 48 46 43 41 42 40 38 37
11 5 8 8 6 6 11 11 9 9 11 6 17 37 34 28 24 24 24 29 32 41 45 51 57 51 45 47 51 52 47 47 52 49 51 50 50 52 55 58 56 54 50 48 47 46 46 46 43
11 11 5 5 3 10 9 11 21 8 7 16 27 33 25 16 12 14 18 22 27 31 39 43 50 57 55 47 57 60 59 54 55 53 52 57 56 56 56 58 58 54 53 53 51 51 51 51 48
14 16 9 13 7 6 6 11 10 8 27 39 35 29 21 12 5 4 6 11 19 24 28 36 44 45 53 58 51 56 55 59 61 61 62 57 61 63 56 52 57 60 58 54 51 48 50 49 47
10 18 8 7 6 5 7 9 6 7 11 21 29 21 17 12 6 1 4 7 9 15 19 24 29 38 44 48 49 59 53 48 45 50 58 66 65 61 54 55 53 51 45 41 43 44 44 47 46
14 14 1 3 4 6 7 6 6 11 12 15 15 22 18 10 6 3 2 5 7 9 12 16 23 28 32 35 40 37 49 46 38 43 44 40 43 40 49 43 47 40 40 43 36 35 37 34 33
7 7 4 4 8 7 3 6 7 10 16 16 16 22 19 12 8 6 5 4 3 5 7 11 15 19 24 28 32 31 34 32 33 30 31 33 29 25 23 21 17 19 23 23 22 24 25 26 26
8 2 9 6 8 7 5 9 8 9 18 31 27 29 21 11 10 9 8 8 9 11 12 12 14 16 19 21 22 26 29 30 30 28 24 20 18 16 16 19 19 20 19 19 19 19 18 17 18
Wind_Direction_500mb
25 107 73 317 25 81 252 245 207 170 104 118 74 95 128 53 62 169 143 171 166 166 171 167 162 162 159 153 152 144 140 137 141 135 145 144 142 139 142 147 158 145 126 109 123 146 148 137 124
49 85 341 270 121 291 275 272 298 183 119 114 105 101 84 125 99 136 160 184 179 169 168 164 161 162 159 156 155 149 146 145 146 143 148 151 153 155 150 145 146 133 113 112 113 135 140 142 134
348 124 237 165 182 203 296 313 285 118 120 112 101 82 74 92 134 150 183 177 183 169 166 162 161 161 160 156 154 151 150 145 151 154 157 159 160 159 150 142 140 124 126 115 118 124 122 119 118
342 126 240 177 249 254 165 275 292 85 102 114 122 72 93 141 145 158 179 180 173 170 164 162 160 157 155 155 153 148 152 157 160 162 167 167 160 150 141 144 129 130 125 123 122 119 119 121 118
46 188 252 239 251 263 252 274 178 125 111 143 117 111 87 115 145 158 175 178 172 168 165 163 161 155 155 154 151 151 153 159 168 180 178 167 156 142 141 147 137 136 137 131 128 125 123 122 121
309 218 176 244 258 249 186 229 120 137 167 173 110 100 103 159 158 159 172 173 176 167 167 167 163 161 157 156 157 157 158 160 168 179 180 162 146 127 128 122 129 145 145 132 138 136 134 130 125
217 102 218 256 264 357 131 277 78 353 139 162 125 82 141 156 154 157 169 172 164 166 171 172 168 167 161 161 163 163 161 159 151 155 164 154 142 146 149 133 131 173 160 152 154 154 151 146 141
288 156 212 230 240 292 349 319 44 51 28 137 113 145 174 162 154 164 162 170 168 174 181 179 174 172 170 166 169 170 167 162 161 156 158 165 158 163 161 153 172 203 165 175 175 177 177 173 168
272 291 209 211 176 199 20 46 24 12 69 63 89 135 173 160 157 163 165 170 185 184 186 189 180 178 178 176 175 178 178 174 172 169 171 199 178 184 183 182 176 199 188 174 203 202 197 195 200
197 181 217 229 100 113 17 58 12 23 15 79 92 128 151 160 161 168 172 174 175 180 190 188 186 185 185 186 185 186 188 188 188 184 191 211 203 209 195 192 211 220 234 256 263 228 206 218 234
261 194 273 283 61 77 48 17 14 19 47 30 147 148 159 163 166 174 177 177 179 186 191 188 190 189 191 193 194 195 196 199 201 201 202 212 223 229 203 192 200 221 241 246 246 228 221 240 250
288 280 270 292 89 5 96 3 353 6 330 2 323 194 172 172 174 180 179 183 179 190 183 184 190 192 194 200 204 201 201 205 210 212 213 217 227 226 227 231 233 241 239 236 240 245 243 251 260
260 281 287 288 313 224 138 313 259 291 300 345 91 175 175 176 181 188 190 186 186 184 193 190 196 196 199 196 202 206 205 211 217 221 220 218 220 225 234 242 239 237 235 230 241 247 255 271 280
196 246 262 276 294 283 165 234 132 240 200 75 159 180 188 190 193 198 204 197 192 188 191 194 199 198 202 206 201 207 212 215 220 222 225 222 218 225 236 239 237 234 241 238 241 254 257 264 273
170 200 261 262 281 244 117 283 230 245 253 269 198 198 201 210 208 214 206 195 201 196 200 198 199 203 208 205 210 209 211 216 228 223 221 225 221 225 230 235 234 242 247 250 252 254 258 266 276
152 103 164 283 242 236 149 236 251 241 238 236 240 230 221 214 217 220 225 221 211 217 204 205 211 209 208 213 212 207 215 220 223 225 222 221 233 226 232 232 233 235 242 248 251 252 260 261 265
333 169 182 274 248 221 172 200 236 256 264 259 242 239 242 246 222 220 218 219 220 219 226 213 210 215 213 210 212 213 215 223 226 227 228 226 226 224 226 226 226 226 228 231 234 242 248 254 261
165 193 191 207 10 221 193 193 229 240 233 227 219 212 225 241 247 219 218 221 222 218 225 228 224 216 221 217 213 216 218 218 223 226 229 232 231 231 234 234 233 234 235 235 240 243 246 256 264
107 119 186 121 15 195 183 194 238 248 200 236 228 220 230 235 221 201 201 214 219 215 213 225 225 221 214 217 209 211 216 219 222 226 231 231 233 231 232 233 233 232 236 238 240 244 247 256 274
165 158 261 98 12 62 337 282 269 256 248 238 226 216 221 233 242 233 215 205 202 210 216 223 229 236 234 234 218 213 216 221 226 229 229 231 233 233 234 234 228 227 231 234 239 241 249 258 261
177 159 203 102 315 306 37 291 248 264 245 252 247 225 219 225 239 239 229 221 190 187 201 222 233 235 241 246 234 216 219 225 226 228 229 230 232 232 241 234 230 226 232 233 238 244 248 264 271
128 172 200 157 82 210 141 273 277 247 243 242 244 228 223 211 196 178 205 208 209 208 202 211 227 234 238 243 250 221 216 219 222 224 230 231 228 229 234 237 233 231 235 236 239 246 249 254 267
173 67 135 202 150 73 267 21 267 266 273 243 227 150 146 162 188 189 184 195 201 205 206 206 219 230 226 236 242 242 225 227 236 228 225 226 226 229 231 231 230 232 238 241 239 237 245 250 260
177 75 43 61 82 282 203 175 262 231 216 106 95 127 139 156 164 172 184 197 197 206 212 212 213 222 226 225 226 231 230 238 235 231 231 229 230 233 232 229 231 234 237 238 239 239 242 247 253
121 117 44 22 357 232 269 199 249 246 339 170 145 129 131 152 180 204 218 229 232 228 223 223 221 219 225 220 221 227 228 229 232 227 228 226 227 227 229 230 227 231 233 236 238 241 244 248 250
165 164 149 176 197 244 250 230 266 6 98 118 124 123 124 122 127 183 217 230 239 239 232 228 228 226 222 226 220 224 226 228 228 229 228 236 228 224 225 217 216 222 226 230 236 243 247 245 249
188 209 158 85 21 70 227 293 10 91 92 106 110 114 105 105 97 81 263 248 228 227 227 221 218 219 221 221 221 223 229 223 221 228 221 213 208 214 221 218 220 220 228 233 237 245 254 263 257
157 147 163 36 155 236 259 225 225 228 186 143 126 125 123 112 101 109 192 227 231 226 222 218 215 215 212 213 215 213 220 225 219 216 222 218 215 198 212 199 214 222 234 238 237 247 247 240 247
147 162 73 149 175 184 176 253 232 263 182 146 130 143 145 143 130 125 124 131 154 173 191 194 195 200 204 210 214 210 214 207 209 200 190 195 201 202 205 216 217 229 235 239 237 238 243 244 245
43 282 191 160 269 217 140 263 22 56 104 135 139 144 144 154 148 142 131 125 120 125 136 154 166 177 178 171 182 193 202 209 208 208 200 199 207 210 218 222 218 217 217 222 228 235 239 246 251
Wind_Speed_850mb
11 11 4 4 3 6 5 13 28 6 9 22 14 28 17 27 7 6 44 39 36 43 50 44 38 35 37 38 34 34 38 36 34 33 33 28 25 22 19 17 17 15 15 20 24 29 27 23 21
10 13 4 5 5 0 9 8 28 9 22 34 27 16 10 3 14 41 47 32 34 44 53 46 38 36 40 40 36 36 41 37 36 29 27 23 20 17 16 17 20 21 25 24 25 25 25 20 18
6 7 5 7 7 8 2 5 21 12 32 20 8 23 13 8 30 59 30 41 35 51 51 45 39 38 39 40 37 39 42 37 34 25 23 18 14 11 13 20 24 28 25 25 28 26 24 24 23
13 7 8 3 11 11 3 8 18 8 26 20 20 16 19 15 40 32 40 40 37 55 52 46 41 40 40 39 38 44 43 37 31 26 18 12 10 11 14 17 29 27 25 23 25 24 23 21 21
6 5 3 7 12 7 4 32 8 7 11 8 13 8 14 20 24 44 48 39 38 52 49 45 44 43 41 40 43 45 41 35 28 19 14 12 12 14 16 16 23 27 23 22 22 22 21 20 19
11 4 2 9 12 11 7 55 8 9 21 20 20 15 9 19 28 60 44 42 34 42 48 45 46 44 42 42 43 42 37 29 19 16 16 14 18 21 15 16 14 21 21 19 20 18 16 15 14
5 4 8 9 13 10 4 8 9 7 10 20 13 9 27 31 46 60 50 36 29 36 41 45 48 44 40 40 41 39 32 24 22 18 16 19 24 22 18 12 9 8 13 15 15 14 12 11 9
10 5 6 8 6 8 9 7 12 22 8 15 16 14 15 46 58 55 44 36 35 39 38 44 48 46 42 40 39 38 33 29 25 20 13 26 25 28 24 21 15 9 18 19 16 14 12 10 8
16 2 8 10 8 4 23 15 29 12 10 18 11 21 31 51 61 53 47 40 33 37 38 45 50 46 43 41 41 38 34 31 27 25 22 13 13 19 24 26 24 17 17 10 10 11 10 8 6
12 7 11 7 1 7 7 15 19 14 13 17 33 40 54 51 62 58 57 49 46 39 34 52 51 47 45 44 43 40 37 33 29 25 23 16 9 5 20 21 25 20 13 10 7 8 9 8 8
8 10 8 10 11 11 6 14 14 12 12 20 33 56 53 55 60 59 50 46 42 33 30 46 48 46 44 44 45 43 39 34 31 27 24 21 17 12 17 19 17 18 16 14 11 8 8 9 10
8 15 17 15 4 5 7 5 14 10 1 22 12 39 47 59 62 61 58 52 42 39 37 30 30 47 42 37 42 42 39 35 33 30 28 27 24 18 17 16 16 16 19 18 17 14 9 12 14
17 32 34 30 17 4 4 2 2 24 14 15 3 42 36 54 55 56 56 56 48 48 42 39 39 38 42 42 36 38 36 34 33 33 31 30 31 27 23 21 22 18 16 19 16 16 15 15 16
21 46 43 27 25 16 8 4 2 4 4 9 27 25 24 36 43 50 53 51 56 55 57 49 46 43 45 43 44 37 35 28 29 32 30 31 34 33 30 27 24 21 18 15 15 16 17 18 18
12 25 9 14 15 5 13 7 12 34 32 21 9 15 28 23 30 34 35 48 52 54 60 65 60 53 48 45 44 38 37 32 29 30 27 29 34 34 31 27 26 22 20 18 19 19 20 22 22
11 1 7 7 16 15 16 9 9 23 32 34 32 20 22 34 36 35 35 34 40 40 52 60 64 59 57 51 48 45 43 39 35 34 34 34 30 33 28 26 28 24 21 22 23 25 24 23 23
7 8 9 8 18 9 14 7 25 49 37 27 37 29 31 22 35 47 46 45 43 46 41 48 50 62 61 58 54 50 48 46 42 37 39 38 36 36 36 33 31 29 29 28 27 25 24 26 26
11 8 8 10 5 15 12 12 10 13 9 26 21 19 23 31 23 38 43 51 42 48 46 42 47 51 63 61 59 56 52 50 46 45 43 40 41 40 41 40 38 37 35 33 33 31 29 28 27
12 4 8 8 5 3 12 9 14 33 19 21 18 17 20 31 20 17 26 43 52 50 52 49 47 46 50 66 61 62 64 58 54 51 47 45 44 42 45 45 43 39 34 32 31 29 28 29 21
7 7 5 6 5 6 7 7 14 15 16 30 37 31 25 22 27 32 24 25 51 52 48 50 50 45 45 46 72 62 58 59 54 50 49 49 48 45 45 43 45 39 36 33 33 32 27 24 17
11 10 5 5 5 3 2 10 13 17 27 42 51 40 32 27 26 18 24 27 26 40 47 47 47 50 49 46 51 68 52 52 53 55 52 50 48 46 41 37 37 41 41 41 37 32 30 29 24
6 8 5 8 6 4 4 9 10 14 19 16 34 35 34 30 19 18 26 31 35 43 48 46 46 51 51 47 40 60 67 65 65 60 54 49 47 48 48 44 44 47 44 42 40 37 35 37 36
7 9 1 4 5 3 5 2 13 15 11 15 30 27 27 26 28 30 32 36 43 42 49 52 52 51 52 51 48 44 57 67 57 54 51 50 52 54 54 51 50 48 46 43 41 42 40 38 37
11 5 8 8 6 6 11 11 9 9 11 6 17 37 34 28 24 24 24 29 32 41 45 51 57 51 45 47 51 52 47 47 52 49 51 50 50 52 55 58 56 54 50 48 47 46 46 46 43
11 11 5 5 3 10 9 11 21 8 7 16 27 33 25 16 12 14 18 22 27 31 39 43 50 57 55 47 57 60 59 54 55 53 52 57 56 56 56 58 58 54 53 53 51 51 51 51 48
14 16 9 13 7 6 6 11 10 8 27 39 35 29 21 12 5 4 6 11 19 24 28 36 44 45 53 58 51 56 55 59 61 61 62 57 61 63 56 52 57 60 58 54 51 48 50 49 47
10 18 8 7 6 5 7 9 6 7 11 21 29 21 17 12 6 1 4 7 9 15 19 24 29 38 44 48 49 59 53 48 45 50 58 66 65 61 54 55 53 51 45 41 43 44 44 47 46
14 14 1 3 4 6 7 6 6 11 12 15 15 22 18 10 6 3 2 5 7 9 12 16 23 28 32 35 40 37 49 46 38 43 44 40 43 40 49 43 47 40 40 43 36 35 37 34 33
7 7 4 4 8 7 3 6 7 10 16 16 16 22 19 12 8 6 5 4 3 5 7 11 15 19 24 28 32 31 34 32 33 30 31 33 29 25 23 21 17 19 23 23 22 24 25 26 26
8 2 9 6 8 7 5 9 8 9 18 31 27 29 21 11 10 9 8 8 9 11 12 12 14 16 19 21 22 26 29 30 30 28 24 20 18 16 16 19 19 20 19 19 19 19 18 17 18
Wind_Direction_850mb
25 107 73 317 25 81 252 245 207 170 104 118 74 95 128 53 62 169 143 171 166 166 171 167 162 162 159 153 152 144 140 137 141 135 145 144 142 139 142 147 158 145 126 109 123 146 148 137 124
49 85 341 270 121 291 275 272 298 183 119 114 105 101 84 125 99 136 160 184 179 169 168 164 161 162 159 156 155 149 146 145 146 143 148 151 153 155 150 145 146 133 113 112 113 135 140 142 134
348 124 237 165 182 203 296 313 285 118 120 112 101 82 74 92 134 150 183 177 183 169 166 162 161 161 160 156 154 151 150 145 151 154 157 159 160 159 150 142 140 124 126 115 118 124 122 119 118
342 126 240 177 249 254 165 275 292 85 102 114 122 72 93 141 145 158 179 180 173 170 164 162 160 157 155 155 153 148 152 157 160 162 167 167 160 150 141 144 129 130 125 123 122 119 119 121 118
46 188 252 239 251 263 252 274 178 125 111 143 117 111 87 115 145 158 175 178 172 168 165 163 161 155 155 154 151 151 153 159 168 180 178 167 156 142 141 147 137 136 137 131 128 125 123 122 121
309 218 176 244 258 249 186 229 120 137 167 173 110 100 103 159 158 159 172 173 176 167 167 167 163 161 157 156 157 157 158 160 168 179 180 162 146 127 128 122 129 145 145 132 138 136 134 130 125
217 102 218 256 264 357 131 277 78 353 139 162 125 82 141 156 154 157 169 172 164 166 171 172 168 167 161 161 163 163 161 159 151 155 164 154 142 146 149 133 131 173 160 152 154 154 151 146 141
288 156 212 230 240 292 349 319 44 51 28 137 113 145 174 162 154 164 162 170 168 174 181 179 174 172 170 166 169 170 167 162 161 156 158 165 158 163 161 153 172 203 165 175 175 177 177 173 168
272 291 209 211 176 199 20 46 24 12 69 63 89 135 173 160 157 163 165 170 185 184 186 189 180 178 178 176 175 178 178 174 172 169 171 199 178 184 183 182 176 199 188 174 203 202 197 195 200
197 181 217 229 100 113 17 58 12 23 15 79 92 128 151 160 161 168 172 174 175 180 190 188 186 185 185 186 185 186 188 188 188 184 191 211 203 209 195 192 211 220 234 256 263 228 206 218 234
261 194 273 283 61 77 48 17 14 19 47 30 147 148 159 163 166 174 177 177 179 186 191 188 190 189 191 193 194 195 196 199 201 201 202 212 223 229 203 192 200 221 241 246 246 228 221 240 250
288 280 270 292 89 5 96 3 353 6 330 2 323 194 172 172 174 180 179 183 179 190 183 184 190 192 194 200 204 201 201 205 210 212 213 217 227 226 227 231 233 241 239 236 240 245 243 251 260
260 281 287 288 313 224 138 313 259 291 300 345 91 175 175 176 181 188 190 186 186 184 193 190 196 196 199 196 202 206 205 211 217 221 220 218 220 225 234 242 239 237 235 230 241 247 255 271 280
196 246 262 276 294 283 165 234 132 240 200 75 159 180 188 190 193 198 204 197 192 188 191 194 199 198 202 206 201 207 212 215 220 222 225 222 218 225 236 239 237 234 241 238 241 254 257 264 273
170 200 261 262 281 244 117 283 230 245 253 269 198 198 201 210 208 214 206 195 201 196 200 198 199 203 208 205 210 209 211 216 228 223 221 225 221 225 230 235 234 242 247 250 252 254 258 266 276
152 103 164 283 242 236 149 236 251 241 238 236 240 230 221 214 217 220 225 221 211 217 204 205 211 209 208 213 212 207 215 220 223 225 222 221 233 226 232 232 233 235 242 248 251 252 260 261 265
333 169 182 274 248 221 172 200 236 256 264 259 242 239 242 246 222 220 218 219 220 219 226 213 210 215 213 210 212 213 215 223 226 227 228 226 226 224 226 226 226 226 228 231 234 242 248 254 261
165 193 191 207 10 221 193 193 229 240 233 227 219 212 225 241 247 219 218 221 222 218 225 228 224 216 221 217 213 216 218 218 223 226 229 232 231 231 234 234 233 234 235 235 240 243 246 256 264
107 119 186 121 15 195 183 194 238 248 200 236 228 220 230 235 221 201 201 214 219 215 213 225 225 221 214 217 209 211 216 219 222 226 231 231 233 231 232 233 233 232 236 238 240 244 247 256 274
165 158 261 98 12 62 337 282 269 256 248 238 226 216 221 233 242 233 215 205 202 210 216 223 229 236 234 234 218 213 216 221 226 229 229 231 233 233 234 234 228 227 231 234 239 241 249 258 261
177 159 203 102 315 306 37 291 248 264 245 252 247 225 219 225 239 239 229 221 190 187 201 222 233 235 241 246 234 216 219 225 226 228 229 230 232 232 241 234 230 226 232 233 238 244 248 264 271
128 172 200 157 82 210 141 273 277 247 243 242 244 228 223 211 196 178 205 208 209 208 202 211 227 234 238 243 250 221 216 219 222 224 230 231 228 229 234 237 233 231 235 236 239 246 249 254 267
173 67 135 202 150 73 267 21 267 266 273 243 227 150 146 162 188 189 184 195 201 205 206 206 219 230 226 236 242 242 225 227 236 228 225 226 226 229 231 231 230 232 238 241 239 237 245 250 260
177 75 43 61 82 282 203 175 262 231 216 106 95 127 139 156 164 172 184 197 197 206 212 212 213 222 226 225 226 231 230 238 235 231 231 229 230 233 232 229 231 234 237 238 239 239 242 247 253
121 117 44 22 357 232 269 199 249 246 339 170 145 129 131 152 180 204 218 229 232 228 223 223 221 219 225 220 221 227 228 229 232 227 228 226 227 227 229 230 227 231 233 236 238 241 244 248 250
165 164 149 176 197 244 250 230 266 6 98 118 124 123 124 122 127 183 217 230 239 239 232 228 228 226 222 226 220 224 226 228 228 229 228 236 228 224 225 217 216 222 226 230 236 243 247 245 249
188 209 158 85 21 70 227 293 10 91 92 106 110 114 105 105 97 81 263 248 228 227 227 221 218 219 221 221 221 223 229 223 221 228 221 213 208 214 221 218 220 220 228 233 237 245 254 263 257
157 147 163 36 155 236 259 225 225 228 186 143 126 125 123 112 101 109 192 227 231 226 222 218 215 215 212 213 215 213 220 225 219 216 222 218 215 198 212 199 214 222 234 238 237 247 247 240 247
147 162 73 149 175 184 176 253 232 263 182 146 130 143 145 143 130 125 124 131 154 173 191 194 195 200 204 210 214 210 214 207 209 200 190 195 201 202 205 216 217 229 235 239 237 238 243 244 245
43 282 191 160 269 217 140 263 22 56 104 135 139 144 144 154 148 142 131 125 120 125 136 154 166 177 178 171 182 193 202 209 208 208 200 199 207 210 218 222 218 217 217 222 228 235 239 246 251